Seldovia, AK

5:23 AM AKDT on October 17, 2017 (GMT -0800)
Seldovia

Weather History for PASO - March, 2013

Change the Weather History Date:

Sunday, March 17, 2013

  Actual Average (PAHO) Record (PAHO)
Temperature  
Mean Temperature 30 °F -  
Max Temperature 36 °F 37 °F 50 °F (1944)
Min Temperature 23 °F 22 °F -3 °F (1959)
Degree Days  
Heating Degree Days 36    
Moisture  
Dew Point 19 °F    
Average Humidity 66    
Maximum Humidity 85    
Minimum Humidity 46    
Precipitation  
Precipitation 0.00 in - - ()
Sea Level Pressure  
Sea Level Pressure 30.12 in    
Wind  
Wind Speed 1 mph (NE)    
Max Wind Speed 7 mph    
Max Gust Speed -    
Visibility 10 miles    
Events      
Averages and records for this station are not official NWS values.
T = Trace of Precipitation, MM = Missing Value Source: NWS Daily Summary

Daily Weather History Graph

Daily Weather History Graph

Search for Another Location

Airport or City:

Trip Planner

Search our weather history database for the weather conditions in past years. The results will help you decide how hot, cold, wet, or windy it might be!

Date:

Astronomy

Mar. 17, 2013 Rise Set
Actual Time 8:15 AM AKDT 8:15 PM AKDT
Civil Twilight 7:35 AM AKDT 8:56 PM AKDT
Nautical Twilight 6:46 AM AKDT 9:44 PM AKDT
Astronomical Twilight 5:54 AM AKDT 10:37 PM AKDT
Moon 10:13 AM AKDT 2:53 AM AKDT
Length of Visible Light 13h 20m
Length of Day
11h 59m
Waxing Crescent, 33% of the Moon is Illuminated
Mar 17
Waxing Crescent
Mar 19
First Quarter
Mar 27
Full
Apr 2
Last Quarter
Apr 10
New

Hourly Weather History & Observations

Time (AKDT) Temp. Windchill Dew Point Humidity Pressure Visibility Wind Dir Wind Speed Gust Speed Precip Events Conditions
12:08 AM 30.2 °F - 19.4 °F 64% 30.11 in 10.0 mi Calm Calm - N/A   Overcast
12:53 AM 30.9 °F 26.2 °F 23.0 °F 72% 30.12 in 10.0 mi South 4.6 mph - N/A   Overcast
1:53 AM 28.0 °F - 21.9 °F 78% 30.11 in 10.0 mi Calm Calm - N/A   Scattered Clouds
2:53 AM 26.1 °F - 21.0 °F 81% 30.12 in 10.0 mi Calm Calm - N/A   Clear
3:53 AM 27.0 °F - 19.9 °F 75% 30.14 in 10.0 mi Calm Calm - N/A   Clear
4:53 AM 24.1 °F - 18.0 °F 77% 30.14 in 10.0 mi Calm Calm - N/A   Partly Cloudy
5:53 AM 23.0 °F - 18.0 °F 81% 30.14 in 10.0 mi Calm Calm - N/A   Mostly Cloudy
6:33 AM 24.8 °F - 17.6 °F 74% 30.14 in 10.0 mi Calm Calm - N/A   Mostly Cloudy
6:53 AM 24.1 °F - 18.0 °F 77% 30.14 in 10.0 mi Calm Calm - N/A   Mostly Cloudy
7:05 AM 24.8 °F - 17.6 °F 74% 30.14 in 10.0 mi Calm Calm - N/A   Scattered Clouds
7:53 AM 23.0 °F - 19.0 °F 85% 30.14 in 10.0 mi Calm Calm - N/A   Overcast
8:12 AM 24.8 °F - 19.4 °F 80% 30.14 in 10.0 mi Calm Calm - N/A   Overcast
8:41 AM 26.6 °F - 21.2 °F 80% 30.14 in 10.0 mi Calm Calm - N/A   Overcast
8:53 AM 26.1 °F - 19.9 °F 78% 30.14 in 10.0 mi Calm Calm - N/A   Overcast
9:53 AM 30.9 °F 25.2 °F 21.0 °F 67% 30.14 in 10.0 mi Variable 5.8 mph - N/A   Overcast
10:53 AM 32.0 °F 28.7 °F 21.0 °F 64% 30.14 in 10.0 mi NE 3.5 mph - N/A   Scattered Clouds
11:03 AM 33.8 °F 27.7 °F 19.4 °F 56% 30.14 in 10.0 mi Variable 6.9 mph - N/A   Mostly Cloudy
11:30 AM 32.0 °F 28.7 °F 19.4 °F 60% 30.14 in 10.0 mi NNE 3.5 mph - N/A   Scattered Clouds
11:53 AM 32.0 °F 27.5 °F 19.9 °F 61% 30.14 in 10.0 mi Variable 4.6 mph - N/A   Mostly Cloudy
12:53 PM 35.1 °F 31.0 °F 21.0 °F 57% 30.15 in 10.0 mi Variable 4.6 mph - N/A   Mostly Cloudy
1:53 PM 36.0 °F 31.1 °F 17.1 °F 46% 30.14 in 10.0 mi Variable 5.8 mph - N/A   Clear
2:53 PM 35.1 °F 30.1 °F 16.0 °F 46% 30.14 in 10.0 mi Variable 5.8 mph - N/A   Clear
3:53 PM 35.1 °F - 16.0 °F 46% 30.12 in 10.0 mi Calm Calm - N/A   Clear
4:53 PM 34.0 °F - 15.1 °F 46% 30.11 in 10.0 mi Calm Calm - N/A   Clear
5:53 PM 34.0 °F 29.8 °F 16.0 °F 48% 30.10 in 10.0 mi NNE 4.6 mph - N/A   Clear
6:53 PM 32.0 °F - 16.0 °F 52% 30.10 in 10.0 mi Calm Calm - N/A   Clear
7:53 PM 33.1 °F - 17.1 °F 52% 30.09 in 10.0 mi Calm Calm - N/A   Clear
8:53 PM 30.0 °F - 19.0 °F 64% 30.08 in 10.0 mi Calm Calm - N/A   Clear
9:53 PM 28.0 °F - 19.0 °F 69% 30.07 in 10.0 mi Calm Calm - N/A   Clear
10:53 PM 26.1 °F - 19.0 °F 75% 30.06 in 10.0 mi Calm Calm - N/A   Clear
11:53 PM 25.0 °F - 18.0 °F 75% 30.05 in 10.0 mi Calm Calm - N/A   Clear